DL2GPS-3 Weather Reports


time (UTC)temp
C
wind
direction
speed
KPH
gust
KPH
rain 1hr
cm
rain 24hr
cm
rain mn
cm
humidity
%
barometer
mb
20260504100507 18 24.1 25.7 0.00 0.00 0.00 40 1016.2
20260504081413 17 25.7 25.7 0.00 0.00 0.00 41 1016.6
20260504080408 17 24.1 25.7 0.00 0.00 0.00 42 1016.7
20260504070338 16 24.1 27.4 0.00 0.00 0.00 47 1016.3
20260504050238 11 24.1 27.4 0.00 0.00 0.00 76 1016.3
20260504045233 11 24.1 25.7 0.00 0.00 0.00 75 1016.4
20260504044227 12 24.1 25.7 0.00 0.00 0.00 69 1016.4
20260504043223 12 24.1 27.4 0.00 0.00 0.00 68 1016.4
20260504042218 10 24.1 25.7 0.00 0.00 0.00 80 1016.5
20260504041213 9 24.1 27.4 0.00 0.00 0.00 84 1016.5
20260504040207 9 25.7 25.7 0.00 0.00 0.00 85 1016.6
20260504035202 9 24.1 25.7 0.00 0.00 0.00 83 1016.6
20260504034159 9 24.1 27.4 0.00 0.00 0.00 83 1016.8
20260504033154 9 24.1 24.1 0.00 0.00 0.00 82 1016.8
20260504032148 9 24.1 25.7 0.00 0.00 0.00 81 1016.8
20260504031144 9 24.1 25.7 0.00 0.00 0.00 82 1016.8
20260504030139 9 25.7 25.7 0.00 0.00 0.00 81 1016.7
20260504025134 9 24.1 27.4 0.00 0.00 0.00 82 1016.7
20260504024128 8 24.1 25.7 0.00 0.00 0.00 81 1016.7
20260504023123 9 25.7 27.4 0.00 0.00 0.00 80 1016.8
20260504022118 9 25.7 25.7 0.00 0.00 0.00 80 1016.9
20260504021114 10 24.1 25.7 0.00 0.00 0.00 80 1016.8
20260504020110 10 24.1 25.7 0.00 0.00 0.00 77 1016.8
20260504015104 10 24.1 24.1 0.00 0.00 0.00 77 1016.9
20260504014100 10 24.1 27.4 0.00 0.00 0.00 77 1016.9
20260504013055 10 25.7 27.4 0.00 0.00 0.00 78 1016.8
20260504012050 10 24.1 27.4 0.00 0.00 0.00 78 1017.0
20260504011045 10 24.1 25.7 0.00 0.00 0.00 78 1016.9
20260504010041 10 24.1 25.7 0.00 0.00 0.00 78 1017.0
20260504005036 10 24.1 27.4 0.00 0.00 0.00 77 1017.0
20260504004032 10 24.1 25.7 0.00 0.00 0.00 74 1017.1
20260504003028 10 24.1 25.7 0.00 0.00 0.00 76 1017.0
20260504002022 10 24.1 25.7 0.00 0.00 0.00 79 1017.1
20260504001018 10 24.1 27.4 0.00 0.00 0.00 79 1017.2
20260504000013 10 25.7 27.4 0.00 0.00 0.00 77 1017.0
20260503235008 10 24.1 25.7 0.00 0.00 0.00 77 1017.1
20260503234002 10 24.1 25.7 0.00 0.00 0.00 75 1017.1
20260503232957 11 24.1 25.7 0.00 0.00 0.00 75 1017.1
20260503231953 11 24.1 25.7 0.00 0.00 0.00 74 1017.2
20260503230949 10 24.1 25.7 0.00 0.00 0.00 74 1017.1
20260503225943 10 24.1 27.4 0.00 0.00 0.00 74 1017.1
20260503224938 11 24.1 27.4 0.00 0.00 0.00 72 1017.2
20260503223933 11 24.1 25.7 0.00 0.00 0.00 71 1017.1
20260503222929 11 25.7 25.7 0.00 0.00 0.00 68 1017.1
20260503221923 12 24.1 27.4 0.00 0.00 0.00 67 1017.0
20260503220918 12 24.1 27.4 0.00 0.00 0.00 68 1017.0
20260503215914 11 24.1 25.7 0.00 0.00 0.00 70 1016.9
20260503214909 11 24.1 25.7 0.00 0.00 0.00 71 1016.9
20260503213903 11 24.1 25.7 0.00 0.00 0.00 69 1017.0
20260503212858 11 24.1 25.7 0.00 0.00 0.00 68 1016.9
20260503211855 11 24.1 27.4 0.00 0.00 0.00 68 1016.8
20260503210849 12 24.1 25.7 0.00 0.00 0.00 67 1016.8
20260503205843 12 24.1 25.7 0.00 0.00 0.00 64 1016.9
20260503204838 12 24.1 25.7 0.00 0.00 0.00 63 1016.9
20260503203834 12 24.1 25.7 0.00 0.00 0.00 65 1016.9
20260503202829 12 25.7 25.7 0.00 0.00 0.00 66 1016.9
20260503201823 12 24.1 25.7 0.00 0.00 0.00 63 1016.9
20260503200819 12 24.1 24.1 0.00 0.00 0.00 62 1017.0
20260503195814 12 24.1 29.0 0.00 0.00 0.00 62 1017.0
20260503194809 12 24.1 25.7 0.00 0.00 0.00 60 1016.9
20260503193803 12 24.1 25.7 0.00 0.00 0.00 60 1016.8
20260503192758 12 24.1 25.7 0.00 0.00 0.00 59 1016.8
20260503191753 12 24.1 27.4 0.00 0.00 0.00 58 1016.6
20260503190748 12 24.1 24.1 0.00 0.00 0.00 57 1016.7
20260503185742 12 24.1 27.4 0.00 0.00 0.00 55 1016.6
20260503184737 12 24.1 25.7 0.00 0.00 0.00 55 1016.6
20260503183733 12 24.1 27.4 0.00 0.00 0.00 54 1016.6
20260503182728 12 24.1 25.7 0.00 0.00 0.00 53 1016.6
20260503181722 12 25.7 27.4 0.00 0.00 0.00 52 1016.7
20260503180718 12 24.1 24.1 0.00 0.00 0.00 52 1016.7
20260503175712 12 24.1 24.1 0.00 0.00 0.00 52 1016.7
20260503174708 13 24.1 29.0 0.00 0.00 0.00 52 1016.7
20260503173702 13 24.1 25.7 0.00 0.00 0.00 52 1016.8
20260503172658 13 24.1 25.7 0.00 0.00 0.00 50 1016.9
20260503171653 13 24.1 24.1 0.00 0.00 0.00 49 1017.0
20260503170648 13 24.1 25.7 0.00 0.00 0.00 50 1017.1
20260503150546 19 25.7 25.7 0.00 0.00 0.00 33 1016.5
20260503130444 23 24.1 25.7 0.00 0.00 0.00 35 1016.6
20260503110346 22 24.1 24.1 0.00 0.00 0.00 33 1017.5